Litchfield, MN

7:25 AM CDT on August 21, 2017 (GMT -0500)
Litchfield Municipal

Weather History for KLJF - October, 2014

Change the Weather History Date:

Sunday, October 19, 2014

  Actual Average Record
Temperature  
Mean Temperature 55 °F -  
Max Temperature 69 °F 56 °F 84 °F (2000)
Min Temperature 41 °F 33 °F 14 °F (1972)
Degree Days  
Heating Degree Days 10    
Growing Degree Days 5 (Base 50)    
Moisture  
Dew Point 42 °F    
Average Humidity 66    
Maximum Humidity 93    
Minimum Humidity 38    
Precipitation  
Precipitation 0.00 in - - ()
Sea Level Pressure  
Sea Level Pressure 29.89 in    
Wind  
Wind Speed 6 mph (WSW)    
Max Wind Speed 13 mph    
Max Gust Speed 18 mph    
Visibility 10 miles    
Events      
Averages and records for this station are not official NWS values.
T = Trace of Precipitation, MM = Missing Value Source: NWS Daily Summary

Daily Weather History Graph

Daily Weather History Graph

Search for Another Location

Airport or City:

Trip Planner

Search our weather history database for the weather conditions in past years. The results will help you decide how hot, cold, wet, or windy it might be!

Date:

Astronomy

Oct. 19, 2014 Rise Set
Actual Time 7:39 AM CDT 6:26 PM CDT
Civil Twilight 7:09 AM CDT 6:55 PM CDT
Nautical Twilight 6:35 AM CDT 7:30 PM CDT
Astronomical Twilight 6:01 AM CDT 8:04 PM CDT
Moon 3:22 AM CDT (10/19) 4:27 PM CDT (10/19)
Length of Visible Light 11h 46m
Length of Day
10h 46m
Waning Crescent, 16% of the Moon is Illuminated
Oct 19
Waning Crescent
Oct 23
New
Oct 30
First Quarter
Nov 6
Full
Nov 14
Last Quarter

Hourly Weather History & Observations

Time (CDT) Temp. Windchill Dew Point Humidity Pressure Visibility Wind Dir Wind Speed Gust Speed Precip Events Conditions
12:12 AM 41.0 °F 39.0 °F 39.2 °F 93% 30.06 in 10.0 mi SSE 3.5 mph - N/A   Clear
12:33 AM 42.8 °F 40.1 °F 41.0 °F 93% 30.06 in 10.0 mi SSE 4.6 mph - N/A   Clear
12:53 AM 42.8 °F 41.1 °F 39.2 °F 87% 30.05 in 10.0 mi SSE 3.5 mph - N/A   Clear
1:12 AM 42.8 °F - 39.2 °F 87% 30.05 in 10.0 mi Calm Calm - N/A   Clear
1:33 AM 42.8 °F 41.1 °F 39.2 °F 87% 30.04 in 10.0 mi SSE 3.5 mph - N/A   Clear
1:53 AM 42.8 °F 41.1 °F 39.2 °F 87% 30.03 in 10.0 mi South 3.5 mph - N/A   Clear
2:12 AM 42.8 °F 41.1 °F 39.2 °F 87% 30.02 in 10.0 mi South 3.5 mph - N/A   Clear
2:33 AM 42.8 °F 41.1 °F 39.2 °F 87% 30.02 in 10.0 mi South 3.5 mph - N/A   Clear
2:53 AM 44.6 °F 42.2 °F 39.2 °F 81% 30.01 in 10.0 mi South 4.6 mph - N/A   Clear
3:12 AM 44.6 °F 43.1 °F 41.0 °F 87% 29.99 in 10.0 mi South 3.5 mph - N/A   Clear
3:33 AM 44.6 °F 43.1 °F 39.2 °F 81% 29.98 in 10.0 mi SSE 3.5 mph - N/A   Clear
3:53 AM 44.6 °F 41.4 °F 39.2 °F 81% 29.97 in 10.0 mi South 5.8 mph - N/A   Clear
4:12 AM 44.6 °F 40.7 °F 39.2 °F 81% 29.96 in 10.0 mi South 6.9 mph - N/A   Clear
4:33 AM 44.6 °F 42.2 °F 41.0 °F 87% 29.96 in 10.0 mi South 4.6 mph - N/A   Clear
4:53 AM 44.6 °F 42.2 °F 41.0 °F 87% 29.95 in 10.0 mi South 4.6 mph - N/A   Clear
5:13 AM 44.6 °F 41.4 °F 41.0 °F 87% 29.94 in 10.0 mi South 5.8 mph - N/A   Clear
5:32 AM 44.6 °F 40.7 °F 41.0 °F 87% 29.93 in 10.0 mi South 6.9 mph - N/A   Clear
5:53 AM 44.6 °F 41.4 °F 41.0 °F 87% 29.92 in 10.0 mi South 5.8 mph - N/A   Clear
6:13 AM 44.6 °F 42.2 °F 41.0 °F 87% 29.91 in 10.0 mi South 4.6 mph - N/A   Clear
6:32 AM 46.4 °F 42.4 °F 42.8 °F 87% 29.90 in 10.0 mi South 8.1 mph - N/A   Clear
6:53 AM 46.4 °F 43.5 °F 42.8 °F 87% 29.90 in 10.0 mi South 5.8 mph - N/A   Clear
7:13 AM 46.4 °F 43.5 °F 41.0 °F 81% 29.90 in 10.0 mi South 5.8 mph - N/A   Clear
7:32 AM 46.4 °F 44.3 °F 42.8 °F 87% 29.90 in 10.0 mi South 4.6 mph - N/A   Clear
7:53 AM 44.6 °F 42.2 °F 41.0 °F 87% 29.89 in 10.0 mi South 4.6 mph - N/A   Clear
8:13 AM 44.6 °F 43.1 °F 42.8 °F 93% 29.89 in 10.0 mi SSW 3.5 mph - N/A   Clear
8:32 AM 46.4 °F 44.3 °F 42.8 °F 87% 29.89 in 10.0 mi South 4.6 mph - N/A   Clear
8:53 AM 46.4 °F 44.3 °F 42.8 °F 87% 29.88 in 10.0 mi South 4.6 mph - N/A   Clear
9:13 AM 48.2 °F - 42.8 °F 82% 29.88 in 10.0 mi South 3.5 mph - N/A   Clear
9:32 AM 48.2 °F - 42.8 °F 82% 29.88 in 10.0 mi SSW 4.6 mph - N/A   Clear
9:53 AM 51.8 °F - 44.6 °F 76% 29.87 in 10.0 mi SSW 4.6 mph - N/A   Clear
10:12 AM 53.6 °F - 44.6 °F 72% 29.87 in 10.0 mi WSW 8.1 mph - N/A   Clear
10:33 AM 53.6 °F - 44.6 °F 72% 29.86 in 10.0 mi SW 6.9 mph - N/A   Clear
10:53 AM 55.4 °F - 44.6 °F 67% 29.86 in 10.0 mi WSW 10.4 mph 16.1 mph N/A   Clear
11:12 AM 57.2 °F - 44.6 °F 63% 29.85 in 10.0 mi WSW 8.1 mph - N/A   Clear
11:33 AM 57.2 °F - 44.6 °F 63% 29.85 in 10.0 mi WSW 8.1 mph - N/A   Clear
11:53 AM 60.8 °F - 44.6 °F 55% 29.84 in 10.0 mi West 9.2 mph 17.3 mph N/A   Clear
12:12 PM 60.8 °F - 44.6 °F 55% 29.85 in 10.0 mi West 10.4 mph 16.1 mph N/A   Clear
12:33 PM 62.6 °F - 44.6 °F 52% 29.84 in 10.0 mi West 10.4 mph - N/A   Clear
12:53 PM 64.4 °F - 44.6 °F 49% 29.83 in 10.0 mi West 8.1 mph - N/A   Clear
1:13 PM 64.4 °F - 42.8 °F 45% 29.83 in 10.0 mi West 6.9 mph - N/A   Clear
1:32 PM 64.4 °F - 42.8 °F 45% 29.82 in 10.0 mi West 9.2 mph - N/A   Clear
1:53 PM 66.2 °F - 42.8 °F 43% 29.82 in 10.0 mi West 10.4 mph - N/A   Clear
2:12 PM 66.2 °F - 44.6 °F 46% 29.81 in 10.0 mi WSW 8.1 mph - N/A   Clear
2:33 PM 68.0 °F - 44.6 °F 43% 29.81 in 10.0 mi West 8.1 mph - N/A   Clear
2:53 PM 69.8 °F - 44.6 °F 40% 29.80 in 10.0 mi West 8.1 mph 17.3 mph N/A   Clear
3:12 PM 69.8 °F - 44.6 °F 40% 29.80 in 10.0 mi West 11.5 mph 17.3 mph N/A   Clear
3:33 PM 69.8 °F - 44.6 °F 40% 29.80 in 10.0 mi WNW 10.4 mph - N/A   Clear
3:53 PM 69.8 °F - 44.6 °F 40% 29.80 in 10.0 mi West 11.5 mph 18.4 mph N/A   Clear
4:12 PM 69.8 °F - 42.8 °F 38% 29.80 in 10.0 mi West 12.7 mph 17.3 mph N/A   Clear
4:33 PM 69.8 °F - 44.6 °F 40% 29.80 in 10.0 mi WNW 11.5 mph 17.3 mph N/A   Clear
4:53 PM 69.8 °F - 42.8 °F 38% 29.80 in 10.0 mi WNW 12.7 mph 17.3 mph N/A   Clear
5:12 PM 69.8 °F - 42.8 °F 38% 29.80 in 10.0 mi WNW 12.7 mph 17.3 mph N/A   Clear
5:33 PM 69.8 °F - 42.8 °F 38% 29.80 in 10.0 mi WNW 10.4 mph 16.1 mph N/A   Clear
5:53 PM 66.2 °F - 42.8 °F 43% 29.81 in 10.0 mi WNW 8.1 mph - N/A   Clear
6:12 PM 66.2 °F - 42.8 °F 43% 29.82 in 10.0 mi WNW 8.1 mph - N/A   Clear
6:33 PM 64.4 °F - 44.6 °F 49% 29.83 in 10.0 mi WNW 6.9 mph - N/A   Clear
6:53 PM 62.6 °F - 42.8 °F 48% 29.83 in 10.0 mi WNW 6.9 mph - N/A   Clear
7:12 PM 62.6 °F - 42.8 °F 48% 29.84 in 10.0 mi WNW 8.1 mph - N/A   Clear
7:33 PM 60.8 °F - 42.8 °F 52% 29.85 in 10.0 mi West 4.6 mph - N/A   Clear
7:53 PM 60.8 °F - 42.8 °F 52% 29.85 in 10.0 mi WNW 6.9 mph - N/A   Clear
8:13 PM 60.8 °F - 42.8 °F 52% 29.85 in 10.0 mi WNW 6.9 mph - N/A   Clear
8:32 PM 60.8 °F - 42.8 °F 52% 29.87 in 10.0 mi NW 10.4 mph - N/A   Clear
8:53 PM 57.2 °F - 41.0 °F 55% 29.87 in 10.0 mi NW 10.4 mph - N/A   Clear
9:12 PM 57.2 °F - 41.0 °F 55% 29.88 in 10.0 mi NW 10.4 mph - N/A   Clear
9:33 PM 57.2 °F - 41.0 °F 55% 29.89 in 10.0 mi NW 10.4 mph - N/A   Clear
9:53 PM 57.2 °F - 42.8 °F 59% 29.89 in 10.0 mi NW 9.2 mph - N/A   Clear
10:12 PM 55.4 °F - 42.8 °F 63% 29.89 in 10.0 mi NW 10.4 mph - N/A   Clear
10:33 PM 55.4 °F - 42.8 °F 63% 29.90 in 10.0 mi NW 10.4 mph 17.3 mph N/A   Clear
10:53 PM 55.4 °F - 42.8 °F 63% 29.90 in 10.0 mi NW 11.5 mph - N/A   Clear
11:12 PM 55.4 °F - 42.8 °F 63% 29.90 in 10.0 mi NW 10.4 mph - N/A   Clear
11:33 PM 55.4 °F - 42.8 °F 63% 29.91 in 10.0 mi NW 10.4 mph - N/A   Clear
11:53 PM 53.6 °F - 42.8 °F 67% 29.92 in 10.0 mi NW 6.9 mph - N/A   Clear